Location: Calmejanne
(44.7523°N, 1.9418°E)
Time: 08:02:37
(UTC+00:00)

Cosmos 1725 Rocket - Pass Details

Date: 14 May 2026
Orbit: 960 x 991 km, 82.9° (Epoch: 5 June)

Event Time Altitude Azimuth Distance (km) Brightness Sun altitude
Rises 19:59:35 0° 182° (S) 3,676 6.7 -7.9°
Reaches altitude 10° 20:02:05 10° 181° (S) 2,728 6.0 -8.2°
Maximum altitude 20:08:21 80° 96° (E) 995 4.0 -9.1°
Drops below altitude 10° 20:14:35 10° 10° (N) 2,725 6.8 -10.0°
Sets 20:17:06 0° 10° (N) 3,672 7.5 -10.3°
